Location: Franzen
(48.6167°N, 15.3833°E)
Time: 07:28:02
(UTC+00:00)

Altair - Pass Details

Date: 02 August 2021
Orbit: 1501 x 1682 km, 47.2° (Epoch: 20 September)

Event Time Altitude Azimuth Distance (km) Brightness Sun altitude
Rises 03:36:00 0° 271° (W) 4,696 9.5 -0.5°
Reaches altitude 10° 03:39:04 10° 271° (W) 3,695 9.0 -0.1°
Maximum altitude 03:48:21 82° 185° (S) 1,520 7.6 1.3°
Drops below altitude 10° 03:57:32 10° 100° (E) 3,656 10.6 2.6°
Sets 04:00:33 0° 100° (E) 4,644 11.1 3.1°
